N22318 KCOS-

Flight info

Callsign N22318
Flight time N/A
Altitude VFR
Route /N/
Aircraft C172/L-VGD/C

Departure

Time 2026-05-06 04:32
Airport City of Colorado Springs Municipal Airport (KCOS)

Arrival

Time N/A
Airport -
Time Latitude Longitude Altitude Speed Heading
2026-05-06 04:24 38.35127 -104.58037 6496 ft 112 kts
2026-05-06 04:25 38.35858 -104.57845 6660 ft 100 kts 20°
2026-05-06 04:25 38.36518 -104.57542 6733 ft 100 kts 22°
2026-05-06 04:25 38.37041 -104.56855 6615 ft 116 kts 57°
2026-05-06 04:25 38.37480 -104.55959 6575 ft 121 kts 56°
2026-05-06 04:26 38.37956 -104.55130 6687 ft 109 kts 51°
2026-05-06 04:26 38.38471 -104.54405 6681 ft 112 kts 53°
2026-05-06 04:26 38.38872 -104.53678 6829 ft 102 kts 54°
2026-05-06 04:26 38.39441 -104.52760 5728 ft 166 kts 50°
2026-05-06 04:27 38.39979 -104.51661 6013 ft 126 kts 62°
2026-05-06 04:27 38.40354 -104.50701 6143 ft 112 kts 63°
2026-05-06 04:27 38.40754 -104.49839 6145 ft 117 kts 58°
2026-05-06 04:27 38.41158 -104.48935 6200 ft 115 kts 60°
2026-05-06 04:28 38.41550 -104.48108 6355 ft 104 kts 53°
2026-05-06 04:28 38.42037 -104.47498 6446 ft 104 kts 41°
2026-05-06 04:28 38.42617 -104.46796 6337 ft 118 kts 48°
2026-05-06 04:28 38.43173 -104.46010 6301 ft 121 kts 47°
2026-05-06 04:29 38.43776 -104.45226 6250 ft 124 kts 44°
2026-05-06 04:29 38.44398 -104.44468 6247 ft 123 kts 42°
2026-05-06 04:29 38.45020 -104.43790 6361 ft 113 kts 39°
2026-05-06 04:29 38.45673 -104.43176 6269 ft 124 kts 29°
2026-05-06 04:30 38.46374 -104.42765 6585 ft 92 kts 21°
2026-05-06 04:30 38.47015 -104.42455 6607 ft 99 kts 19°
2026-05-06 04:30 38.47688 -104.42181 6660 ft 101 kts 15°
2026-05-06 04:30 38.48390 -104.41917 6694 ft 104 kts 14°
2026-05-06 04:31 38.49122 -104.41735 6767 ft 97 kts 12°
2026-05-06 04:31 38.49778 -104.41579 6585 ft 121 kts 11°
2026-05-06 04:31 38.50567 -104.41315 6642 ft 115 kts 15°
2026-05-06 04:31 38.51286 -104.41068 6860 ft 94 kts 11°
2026-05-06 04:32 38.51940 -104.40920 6859 ft 103 kts
2026-05-06 04:32 38.52653 -104.40814 6974 ft 94 kts
2026-05-06 04:32 38.53357 -104.40694 6913 ft 108 kts
2026-05-06 04:32 38.54123 -104.40623 6934 ft 109 kts
2026-05-06 04:33 38.54850 -104.40614 7037 ft 101 kts 356°
2026-05-06 04:33 38.55422 -104.40655 7394 ft 58 kts 337°
2026-05-06 04:33 38.55983 -104.40857 7194 ft 94 kts 339°
2026-05-06 04:33 38.56619 -104.41212 7034 ft 115 kts 333°
2026-05-06 04:34 38.57282 -104.41697 7188 ft 100 kts 325°
2026-05-06 04:34 38.57833 -104.42213 7223 ft 102 kts 324°
2026-05-06 04:34 38.58379 -104.42779 7307 ft 96 kts 319°
2026-05-06 04:34 38.58732 -104.43383 7454 ft 86 kts 299°
2026-05-06 04:35 38.59110 -104.44043 7405 ft 96 kts 311°
2026-05-06 04:35 38.59650 -104.44618 7348 ft 103 kts 322°
2026-05-06 04:35 38.60197 -104.45212 7380 ft 101 kts 317°
2026-05-06 04:35 38.60633 -104.45860 7477 ft 95 kts 307°
2026-05-06 04:36 38.61087 -104.46602 7365 ft 105 kts 307°
2026-05-06 04:36 38.61520 -104.47402 7332 ft 105 kts 302°
2026-05-06 04:36 38.61885 -104.48208 7388 ft 101 kts 297°
2026-05-06 04:36 38.62176 -104.48920 7537 ft 87 kts 313°
2026-05-06 04:37 38.62614 -104.49489 7572 ft 89 kts 310°
2026-05-06 04:37 38.62581 -104.50137 7232 ft 113 kts 216°
2026-05-06 04:37 38.62212 -104.50900 7090 ft 111 kts 286°
2026-05-06 04:37 38.62658 -104.51849 6892 ft 114 kts 317°
2026-05-06 04:38 38.63195 -104.52464 7088 ft 98 kts 323°
2026-05-06 04:38 38.63745 -104.52945 7150 ft 99 kts 326°
2026-05-06 04:38 38.64396 -104.53247 7195 ft 97 kts 356°
2026-05-06 04:38 38.65017 -104.53118 7400 ft 77 kts 11°
2026-05-06 04:39 38.65571 -104.52863 7384 ft 86 kts 26°
2026-05-06 04:39 38.66071 -104.52414 7389 ft 93 kts 47°
2026-05-06 04:39 38.66532 -104.51843 7452 ft 88 kts 46°
2026-05-06 04:39 38.66938 -104.51367 7566 ft 81 kts 40°
2026-05-06 04:40 38.67364 -104.50924 7621 ft 79 kts 44°
2026-05-06 04:40 38.67822 -104.50387 7612 ft 79 kts 49°
2026-05-06 04:40 38.68176 -104.49888 7629 ft 83 kts 47°
2026-05-06 04:40 38.68558 -104.49389 7728 ft 75 kts 43°
2026-05-06 04:41 38.68938 -104.48880 7758 ft 74 kts 45°
2026-05-06 04:41 38.69179 -104.48295 7721 ft 81 kts 72°
2026-05-06 04:41 38.69341 -104.47624 7807 ft 74 kts 73°
2026-05-06 04:41 38.69491 -104.46936 7651 ft 99 kts 80°
2026-05-06 04:42 38.69694 -104.46168 7796 ft 81 kts 58°
2026-05-06 04:42 38.69996 -104.45574 7812 ft 84 kts 68°
2026-05-06 04:42 38.70272 -104.44914 7788 ft 87 kts 53°
2026-05-06 04:42 38.70647 -104.44342 7781 ft 84 kts 26°
2026-05-06 04:43 38.71200 -104.44420 7776 ft 84 kts 326°
2026-05-06 04:43 38.71595 -104.44958 7755 ft 83 kts 302°
2026-05-06 04:43 38.72037 -104.45507 7741 ft 88 kts 317°
2026-05-06 04:43 38.72515 -104.45907 7818 ft 82 kts 351°
2026-05-06 04:44 38.72884 -104.46484 7830 ft 67 kts 271°
2026-05-06 04:44 38.72706 -104.47073 7642 ft 89 kts 222°
2026-05-06 04:44 38.72557 -104.47803 7510 ft 99 kts 275°
2026-05-06 04:44 38.72580 -104.48778 7355 ft 107 kts 282°
2026-05-06 04:45 38.72738 -104.49666 7466 ft 94 kts 277°
2026-05-06 04:45 38.72759 -104.50369 7623 ft 80 kts 266°
2026-05-06 04:45 38.72617 -104.51105 7652 ft 79 kts 255°
2026-05-06 04:45 38.72528 -104.51819 7467 ft 96 kts 294°
2026-05-06 04:46 38.72840 -104.52256 6449 ft 60 kts 213°
2026-05-06 04:46 38.72323 -104.52698 6561 ft 55 kts 198°
2026-05-06 04:46 38.72116 -104.52690 5898 ft 6 kts 66°
2026-05-06 04:46 38.72200 -104.52670 5908 ft 23 kts 341°
2026-05-06 04:47 38.72442 -104.52790 5905 ft 51 kts 335°
2026-05-06 04:47 38.72792 -104.53043 5910 ft 60 kts 326°
2026-05-06 04:47 38.73162 -104.53401 5929 ft 74 kts 321°
2026-05-06 04:47 38.73600 -104.53816 5949 ft 85 kts 326°
2026-05-06 04:48 38.74132 -104.54154 6028 ft 90 kts 336°
2026-05-06 04:48 38.74697 -104.54582 6031 ft 101 kts 324°
2026-05-06 04:48 38.75209 -104.55107 6058 ft 84 kts 318°